This is the latest recevied weather packets stored in our database for station/object IU1DOF-3. If no packets are shown the sender has not sent any weather packets the latest 10 day(s).
| Time | Temp. | Humidity | Pressure | Rain* | Wind** | Luminosity | Snow |
|---|---|---|---|---|---|---|---|
| 1777931388 | 8.89° C | 99% | 1015.4 hPa | 0 mm | - | - | - |
| 1777930172 | 8.89° C | 99% | 1015.2 hPa | 1.02 mm | - | - | - |
| 1777929549 | 8.89° C | 99% | 1015.4 hPa | 0 mm | - | - | - |
| 1777928940 | 8.89° C | 99% | 1015.7 hPa | 0 mm | - | - | - |
| 1777928333 | 8.89° C | 99% | 1015.3 hPa | 1.78 mm | - | - | - |
| 1777927720 | 8.89° C | 99% | 1015.4 hPa | 1.02 mm | - | - | - |
| 1777927101 | 8.89° C | 99% | 1015.7 hPa | 1.78 mm | - | - | - |
| 1777926478 | 8.89° C | 99% | 1015.6 hPa | 0 mm | - | - | - |
| 1777925853 | 8.89° C | 99% | 1015.4 hPa | 0 mm | - | - | - |
| 1777925229 | 8.89° C | 99% | 1015.6 hPa | 1.02 mm | - | - | - |
| 1777924605 | 8.89° C | 99% | 1015.5 hPa | 0 mm | - | - | - |
| 1777923996 | 8.89° C | 99% | 1015.5 hPa | 4.57 mm | - | - | - |
| 1777923388 | 8.89° C | 99% | 1015.6 hPa | 5.84 mm | - | - | - |
| 1777922780 | 8.89° C | 99% | 1015.4 hPa | 4.06 mm | - | - | - |
| 1777922157 | 10° C | 99% | 1015.2 hPa | 1.78 mm | - | - | - |
| 1777921541 | 10° C | 99% | 1015.3 hPa | 0 mm | - | - | - |
| 1777920925 | 10° C | 99% | 1015.2 hPa | 1.02 mm | - | - | - |
| 1777920301 | 10° C | 99% | 1015.2 hPa | 0 mm | - | - | - |
| 1777919677 | 10° C | 99% | 1015.2 hPa | 0 mm | - | - | - |
| 1777919068 | 10° C | 99% | 1015.3 hPa | 1.78 mm | - | - | - |
| 1777918445 | 10° C | 99% | 1015.4 hPa | 1.02 mm | - | - | - |
| 1777917836 | 10° C | 99% | 1015.2 hPa | 0 mm | - | - | - |
| 1777917220 | 10° C | 98% | 1015.2 hPa | 1.78 mm | - | - | - |
| 1777916605 | 10.56° C | 98% | 1015 hPa | 1.78 mm | - | - | - |
| 1777915981 | 10.56° C | 97% | 1015.2 hPa | 0 mm | - | - | - |
* Rain latest hour (hover to see other rain measurements)
** Current wind speed in m/s (hover to see current wind gust speed)